Location: Artiguedieu
(43.5000°N, 0.5454°E)
Time: 20:24:44
(UTC+00:00)

Vanguard 1 - Pass Details

Date: 01 August 2021
Orbit: 652 x 3831 km, 34.3° (Epoch: 19 September)

Event Time Altitude Azimuth Distance (km) Brightness Sun altitude
Rises 15:27:27 0° 268° (W) 4,107 14.1 40.3°
Reaches altitude 10° 15:30:10 10° 257° (WSW) 3,462 14.1 39.9°
Maximum altitude 15:37:53 31° 199° (SSW) 3,034 13.3 38.5°
Drops below altitude 10° 15:50:21 10° 146° (SE) 5,665 13.8 36.3°
Sets 15:56:30 0° 138° (SE) 7,177 14.2 35.2°
